Regional Weather Roundup
Issued by NWS

Home | Current Version | Previous Version | Text Only | Print | Product List | Glossary Off
Versions: 1 2 3 4 5 6 7 8 9 10 11 12 13 14 15 16 17 18 19 20 21 22 23 24 25 26 27 28 29 30 31 32 33 34 35 36 37 38 39 40 41 42 43 44 45 46 47 48 49 50

618
ASUS44 KMEG 200910
RWRTN
TENNESSEE HOURLY STATE WEATHER ROUNDUP
NATIONAL WEATHER SERVICE MEMPHIS TN
300 AM CST FRI JAN 20 2017

TNZ002-004-019-021-049-052-054-088>092-201000-
WEST TENNESSEE

CITY           SKY/WX    TMP DP  RH WIND       PRES   REMARKS
MEMPHIS INTL   CLOUDY    55  55 100 SW3       29.71S
NWS MEMPHIS      N/A     56 N/A N/A MISG        N/A
JACKSON        CLOUDY    57  55  93 SW8       29.72S
DYERSBURG      CLOUDY    55  52  88 W9        29.70S
UNION CITY     CLOUDY    55  55 100 SW7       29.68S
PARIS          CLOUDY    54  54 100 SW10      29.70S
HUNTINGDON     CLOUDY    57  55  94 SW3G12    29.70S
$$

TNZ008-025-027-028-033-062-065-066-201000-
NORTH MIDDLE TENNESSEE

CITY           SKY/WX    TMP DP  RH WIND       PRES   REMARKS
NASHVILLE      MOCLDY    56  53  90 S7        29.72S
PORTLAND       CLOUDY    57  55  94 SW8       29.71R
CLARKSVILLE    CLOUDY    57  54  89 SW7       29.70R
SMYRNA         CLOUDY    56  55  97 SW3       29.73S
GALLATIN       CLOUDY    57  57 100 S3        29.74S
CROSSVILLE     CLOUDY    54  52  93 VRB3      29.76R
$$

TNZ061-075-076-078-094-096-097-201000-
SOUTH MIDDLE TENNESSEE

CITY           SKY/WX    TMP DP  RH WIND       PRES   REMARKS
TULLAHOMA      CLEAR     55  55 100 SW12      29.74S
WINCHESTER     MOCLDY    59  55  88 S5        29.75S
MCMINNVILLE    MOCLDY    59  59 100 SW5       29.73S
COLUMBIA       CLOUDY   N/A N/A N/A SW6       29.72S
SHELBYVILLE    CLOUDY    57  57 100 SW6       29.74R
$$

TNZ017-018-042-046-047-201000-
NORTHEAST TENNESSEE

CITY           SKY/WX    TMP DP  RH WIND       PRES   REMARKS
TRI CITIES     LGT RAIN  55  48  77 SE3       29.77F
ELIZABETHTON   CLOUDY    59  45  58 E7G14     29.78S
$$

TNZ012-013-036-069-073-074-201000-
CENTRAL EAST TENNESSEE

CITY           SKY/WX    TMP DP  RH WIND       PRES   REMARKS
KNOXVILLE      LGT RAIN  52  50  93 SE8       29.73F
OAK RIDGE      CLOUDY    53  50  89 S6        29.77R
GATLINBURG     CLOUDY    52  48  87 W12       29.79R
MORRISTOWN     CLOUDY    52  50  93 NW17G31   29.81R FOG
JACKSBORO      PTCLDY    50  50 100 NE7       29.77F
$$

TNZ083-085-099-201000-
SOUTHEAST TENNESSEE

CITY           SKY/WX    TMP DP  RH WIND       PRES   REMARKS
CHATTANOOGA    LGT RAIN  55  53  93 CALM      29.76F
$$

SKY/WX REPORTED AS FAIR MEANS FEW OR NO CLOUDS BELOW
12 THOUSAND FEET.





USA.gov is the U.S. government's official web portal to all federal, state and local government web resources and services.